Regional Weather Roundup
Issued by NWS

Home | Current Version | Previous Version | Graphics & Text | Print | Product List | Glossary On
Versions: 1 2 3 4 5 6 7 8 9 10 11 12 13 14 15 16 17 18 19 20 21 22 23 24 25 26 27 28 29 30 31 32 33 34 35 36 37 38 39 40 41 42 43 44 45 46 47 48 49 50
000
ASUS45 KPSR 170010
RWRAZ

ARIZONA HOURLY REGIONAL WEATHER ROUNDUP
NATIONAL WEATHER SERVICE PHOENIX AZ
500 PM MST TUE JAN 16 2018

NOTE: FAIR INDICATES FEW OR NO CLOUDS BELOW 12,000 FEET WITH NO
SIGNIFICANT WEATHER AND/OR OBSTRUCTIONS TO VISIBILITY.

AZZ001>003-036-170100-
NORTHWEST ARIZONA

CITY           SKY/WX    TMP DP  RH WIND       PRES   REMARKS
BULLHEAD CITY  PTCLDY    68  34  28 N17       30.12S
KINGMAN        PTCLDY    60  29  30 N6        30.19R
6HR MIN TEMP:  56; 6HR MAX TEMP:  64;

$$

AZZ004>008-015-016-018-170100-
NORTH CENTRAL ARIZONA

CITY           SKY/WX    TMP DP  RH WIND       PRES   REMARKS
GRAND CANYON   MOCLDY    45  19  35 NE7       30.28R
6HR MIN TEMP:  45; 6HR MAX TEMP:  53;

WILLIAMS       CLOUDY    50  23  34 W6        30.26R
PRESCOTT       CLOUDY    57  27  31 N5        30.22R
6HR MIN TEMP:  51; 6HR MAX TEMP:  62;

FLAGSTAFF      CLOUDY    43  22  43 E3        30.29R
6HR MIN TEMP:  42; 6HR MAX TEMP:  47;

PAYSON         CLOUDY    48  21  34 S7        30.24R
PAGE           PTCLDY    48  15  26 N3        30.28R
6HR MIN TEMP:  46; 6HR MAX TEMP:  51;

$$

AZZ009>014-017-170100-
NORTHEAST ARIZONA

CITY           SKY/WX    TMP DP  RH WIND       PRES   REMARKS
WINSLOW        PTCLDY    51  22  31 CALM      30.25S
6HR MIN TEMP:  43; 6HR MAX TEMP:  55;

SAINT JOHNS    PTCLDY    49  23  36 CALM      30.24F
6HR MIN TEMP:  41; 6HR MAX TEMP:  52;

WINDOW ROCK    CLEAR     42  21  43 E8        30.28R
6HR MIN TEMP:  38; 6HR MAX TEMP:  50;

SHOW LOW       PTCLDY    46  23  39 N3        30.28S
$$

AZZ540-542>544-546-548-170100-
GREATER PHOENIX AREA

CITY           SKY/WX    TMP DP  RH WIND       PRES   REMARKS
PHOENIX        CLOUDY    71  28  20 SE7       30.10R
6HR MIN TEMP:  67; 6HR MAX TEMP:  74;

BUCKEYE        CLOUDY    68  32  26 E8        30.10F
GLENDALE       CLOUDY    72  30  21 CALM      30.12R
LUKE AFB       CLOUDY    69  34  27 W5        30.09R
6HR MIN TEMP:  64; 6HR MAX TEMP:  72; 6HR PCP: TRACE;

DEER VALLEY    CLOUDY    69  25  19 SE7       30.11R
6HR MIN TEMP:  65; 6HR MAX TEMP:  72;

SCOTTSDALE     CLOUDY    68  27  21 E7        30.13R
6HR MIN TEMP:  67; 6HR MAX TEMP:  72;

MESA-FALCON    MOCLDY    70  27  19 N5        30.12R
MESA-GATEWAY   MOCLDY    68  23  18 E13       30.12R
CHANDLER       MOCLDY    68  27  21 E8        30.11R
$$

AZZ539-553-170100-
SOUTHWEST MARICOPA COUNTY AND PINAL COUNTY

CITY           SKY/WX    TMP DP  RH WIND       PRES   REMARKS
CASA GRANDE    NOT AVBL
GILA BEND      MOCLDY    71  25  17 E10       30.06S
6HR MIN TEMP:  64; 6HR MAX TEMP:  73;

$$

AZZ503-504-507>509-170100-
SOUTHEAST ARIZONA

CITY           SKY/WX    TMP DP  RH WIND       PRES   REMARKS
TUCSON         CLOUDY    63  21  20 E16       30.12S
6HR MIN TEMP:  63; 6HR MAX TEMP:  71;

DAVIS-MONTHAN  CLOUDY    64  22  20 E12       30.11S
6HR MIN TEMP:  64; 6HR MAX TEMP:  70;

NOGALES        CLOUDY    64  23  21 N13G21    30.12S
6HR MIN TEMP:  64; 6HR MAX TEMP:  74;

SIERRA VISTA   MOCLDY    53  21  28 E10       30.23S
6HR MIN TEMP:  53; 6HR MAX TEMP:  58;

DOUGLAS        MOCLDY    48  19  31 E20       30.24F
6HR MIN TEMP:  48; 6HR MAX TEMP:  54;

SAFFORD        PTCLDY    50  17  27 S15       30.29S
6HR MIN TEMP:  47; 6HR MAX TEMP:  53;

$$

AZZ532-170100-
SOUTHWEST ARIZONA

CITY           SKY/WX    TMP DP  RH WIND       PRES   REMARKS
YUMA           NOT AVBL
$$

CAZ041-043-047-048-061-525>527-560>570-170100-
SOUTHERN CALIFORNIA

CITY           SKY/WX    TMP DP  RH WIND       PRES   REMARKS
DOWNTOWN L.A.  CLOUDY    67  51  56 CALM      30.08S
6HR MIN TEMP:  60; 6HR MAX TEMP:  72;

L.A. AIRPORT   CLOUDY    63  53  70 W9        30.09F
6HR MIN TEMP:  63; 6HR MAX TEMP:  68;

SAN DIEGO      PTSUNNY   68  52  56 NW7       30.11F
6HR MIN TEMP:  61; 6HR MAX TEMP:  68;

BURBANK        CLOUDY    69  48  47 S5        30.09S
6HR MIN TEMP:  61; 6HR MAX TEMP:  72;

ONTARIO        PTSUNNY   70  39  32 W3        30.09S
6HR MIN TEMP:  62; 6HR MAX TEMP:  72;

RIVERSIDE      PTSUNNY   70  40  33 CALM      30.10R
6HR MIN TEMP:  59; 6HR MAX TEMP:  72;

PALM SPRINGS   MOSUNNY   75  39  27 N5        30.10R
6HR MIN TEMP:  68; 6HR MAX TEMP:  77;

EL CENTRO NAS  PTSUNNY   76  37  24 CALM      30.08R
6HR MIN TEMP:  67; 6HR MAX TEMP:  78;

IMPERIAL       MOSUNNY   76  36  23 CALM      30.05F
6HR MIN TEMP:  65; 6HR MAX TEMP:  78;

BLYTHE         PTCLDY    70  43  37 E6        30.10R
6HR MIN TEMP:  62; 6HR MAX TEMP:  73;

NEEDLES        PTCLDY    70  36  28 N3        30.13R
6HR MIN TEMP:  65; 6HR MAX TEMP:  71;

$$

NVZ020-UTZ003-170100-
SOUTHERN NEVADA-UTAH

CITY           SKY/WX    TMP DP  RH WIND       PRES   REMARKS
LAS VEGAS      MOCLDY    64  33  31 N5        30.19R
6HR MIN TEMP:  59; 6HR MAX TEMP:  65;

SALT LAKE CITY MOCLDY    42  30  62 W5        30.28R
6HR MIN TEMP:  42; 6HR MAX TEMP:  52;

$$

NMZ009-TXZ055-170100-
NEW MEXICO-WEST TEXAS

CITY           SKY/WX    TMP DP  RH WIND       PRES   REMARKS
ALBUQUERQUE    PTCLDY    35  18  49 W3        30.38F
6HR MIN TEMP:  29; 6HR MAX TEMP:  37;

EL PASO        MOCLDY    36   9  32 SE12      30.42F WCI  28
6HR MIN TEMP:  33; 6HR MAX TEMP:  37;

$$


........................KEY........................
SKY/WX - SKY CONDITION/WEATHER
TMP    - TEMPERATURE IN FAHRENHEIT
DP     - DEW POINT IN FAHRENHEIT
RH     - RELATIVE HUMIDITY IN PERCENT
WIND   - DIRECTION AND SPEED IN MILES PER HOUR (MPH)
VRB    - VARIABLE WIND DIRECTION
PRES   - MEAN SEA LEVEL PRESSURE IN INCHES OF MERCURY
         F - FALLING PRESSURE   R - RISING PRESSURE
         S - STEADY PRESSURE
VSB    - VISIBILITY IN MILES
HX     - HEAT INDEX IN FAHRENHEIT
WCI    - WIND CHILL INDEX IN FAHRENHEIT
TC     - TEMPERATURE IN CELSIUS WHICH IS ALSO KNOWN AS
         TEMPERATURE IN CENTIGRADE
AFB    - AIR FORCE BASE
         LUKE AFB IS LUKE AIR FORCE BASE
         DAVIS-MONTHAN IS DAVIS-MONTHAN AIR FORCE BASE
NAS    - NAVAL AIR STATION
         EL CENTRO NAS IS EL CENTRO NAVAL AIR STATION
N/A    - NOT AVAILABLE




USA.gov is the U.S. government's official web portal to all federal, state and local government web resources and services.